Location: Le Rocchette
(44.3500°N, 7.8333°E)
Time: 02:35:25
(UTC+00:00)

ALOS - Pass Details

Date: 17 November 2019
Orbit: 683 x 686 km, 97.8° (Epoch: 07 December)

Event Time Altitude Azimuth Distance (km) Brightness Sun altitude
Rises 04:58:50 0° 12° (NNE) 3,058 5.6 -15.7°
Reaches altitude 10° 05:01:05 10° 13° (NNE) 2,138 4.8 -15.3°
Maximum altitude 05:05:47 89° 94° (E) 690 2.2 -14.4°
Drops below altitude 10° 05:10:26 10° 194° (SSW) 2,122 4.8 -13.6°
Sets 05:12:40 0° 195° (SSW) 3,034 5.6 -13.2°
